[[{"header":{"parameterUnit":"m.s-1","parameterCategory":1,"la1":30.2991,"la2":30.254,"lo1":-89.0895,"lo2":-89.0444,"dy":0.0017,"dx":0.0017,"nx":28,"ny":28,"refTime":"2024-07-15T09:00:00:Z","depth":0,"parameterNumber":2,"parameterNumberName":"U-component_of_WINDS"},"data":[0,0,0,0,0,0,0,0,0,0,0,0,0,0,0,0,0,0,0,0,0,0,0,0,0,0,0,0,0,0,0,0,0,0,0,0,0,0,0,0,0,0,0,0,0,0,0,0,0,0,0,0,0,0,0,0,0,0,2.6608,2.6609,0,2.6682,2.6683,2.6684,2.6698,2.6698,2.6697,2.6697,2.6774,2.6777,2.6779,0,0,0,0,0,0,0,0,0,0,0,0,0,2.648,2.6482,2.6608,2.6609,2.661,2.6682,2.6683,2.6684,2.6699,2.6698,2.6697,2.6697,2.6773,2.6776,2.6779,0,0,0,0,0,0,0,0,0,0,0,0,0,2.6543,2.6483,2.6608,2.6626,2.6628,2.6682,2.6683,2.6684,2.6699,2.6698,2.6697,2.6696,2.6772,2.6776,2.678,2.6821,0,0,2.6792,2.6793,0,0,0,0,0,0,0,0,2.6539,2.6548,2.6622,2.6624,2.6627,2.668,2.6666,2.673,2.6699,2.6672,2.6697,2.6696,2.6744,2.675,2.6766,2.6825,2.6828,2.6792,2.6794,2.6796,2.6797,0,0,0,0,0,0,0,2.6535,2.6545,2.6637,2.6623,2.6626,2.663,2.6638,2.6678,2.6712,2.6674,2.6675,2.6684,2.6745,2.6762,2.6768,2.6829,2.6792,2.6795,2.6798,2.6799,2.6928,2.6929,0,0,0,0,0,0,2.6527,2.6541,2.6635,2.6639,2.658,2.6633,2.6642,2.6664,2.6711,2.6718,2.6685,2.6684,2.6756,2.6763,2.677,2.6823,2.6796,2.68,2.6802,2.6927,2.6928,2.6929,0,0,0,0,0,0,2.6524,2.6535,2.6632,2.6591,2.6603,2.6637,2.6661,2.6666,2.6683,2.6719,2.6725,2.6696,2.6755,2.6765,2.6809,2.6826,2.6801,2.6805,2.6926,2.6927,2.6929,2.6928,0,0,0,0,0,0,2.6521,2.6534,2.655,2.6591,2.6605,2.6668,2.6662,2.6668,2.669,2.669,2.6731,2.6737,2.6755,2.6803,2.6813,2.6831,2.6808,2.6924,2.6926,2.6928,2.6926,2.6929,2.6932,0,0,0,0,0,2.6516,2.6547,2.6551,2.6562,2.6625,2.6669,2.6678,2.6697,2.6691,2.6707,2.6731,2.6736,2.6822,2.6807,2.6818,2.6838,2.6923,2.6926,2.6928,2.6925,2.6929,2.6931,0,0,0,0,0,0,2.6507,2.6552,2.6557,2.6602,2.6632,2.6672,2.6693,2.67,2.6732,2.6731,2.6755,2.6764,2.6807,2.6827,2.6809,2.6881,2.6872,2.6877,2.6867,2.687,2.6873,2.6867,2.6811,0,0,0,0,0,2.651,2.6542,2.658,2.6616,2.663,2.6659,2.6679,2.6692,2.6723,2.6736,2.6763,2.6794,2.6828,2.685,2.6884,2.6929,2.6939,2.6948,2.6951,2.6953,2.6957,2.6984,2.6988,2.6937,2.6937,2.6937,0,0,2.6518,2.6546,2.6565,2.6615,2.6639,2.6672,2.667,2.6704,2.6729,2.6741,2.6785,2.6805,2.6842,2.6887,2.6908,2.6905,2.6973,2.6956,2.6957,2.696,2.6987,2.6991,2.6996,2.6939,2.6939,2.6938,0,0,2.6547,2.6572,2.6605,2.6629,2.6667,2.6686,2.6693,2.6733,2.6747,2.6791,2.6801,2.6831,2.6889,2.6915,2.6936,2.6976,2.6983,2.6987,2.7,2.7026,2.703,2.7034,2.7049,2.7054,2.6991,2.6991,2.6991,0,2.6551,2.6601,2.6621,2.6655,2.6677,2.669,2.6724,2.6747,2.6794,2.6809,2.6804,2.6879,2.6904,2.6956,2.6966,2.6982,2.6992,2.6982,2.7028,2.7032,2.7035,2.705,2.7056,2.6991,2.6991,2.6991,2.6991,0,2.6604,2.6638,2.6661,2.6705,2.673,2.6764,2.679,2.6812,2.6823,2.6843,2.6888,2.6919,2.6959,2.6972,2.6983,2.7026,2.7023,2.7023,2.7015,2.704,2.7055,2.706,2.6991,2.6991,2.6991,2.6991,0,0,2.663,2.6686,2.6694,2.6714,2.6757,2.6784,2.6819,2.6858,2.6878,2.6909,2.694,2.6989,2.699,2.7013,2.7027,2.705,2.7081,2.7047,2.7048,2.7053,2.7132,2.7132,2.7138,2.7085,2.7087,2.7088,2.7129,0,2.6665,2.6728,2.6748,2.68,2.6832,2.6846,2.6876,2.6906,2.6926,2.6956,2.6978,2.7013,2.7011,2.7025,2.7048,2.7072,2.7097,2.7069,2.7115,2.7116,2.7106,2.7145,2.7146,2.7183,2.7134,2.7135,2.7136,0,2.6715,2.6747,2.6803,2.6842,2.6857,2.6884,2.6922,2.6951,2.6985,2.6998,2.7025,2.7037,2.7075,2.7065,2.7118,2.7098,2.7118,2.7133,2.7135,2.714,2.7128,2.7152,2.7195,2.7201,2.7145,2.7144,2.7144,0,2.6729,2.6787,2.6828,2.6845,2.6892,2.6911,2.6931,2.6965,2.6987,2.7021,2.7036,2.7074,2.7094,2.7124,2.7146,2.7136,2.7198,2.7189,2.721,2.721,2.7223,2.7221,2.727,2.7234,2.7234,2.7234,2.7234,0,2.6767,2.68,2.6835,2.686,2.6899,2.6921,2.6959,2.698,2.701,2.7041,2.7054,2.7082,2.711,2.7142,2.716,2.7202,2.7211,2.7223,2.7228,2.7222,2.7221,2.7236,2.7234,2.7236,2.7235,2.7235,2.7235,0,2.6789,2.6814,2.6859,2.69,2.6911,2.6938,2.6973,2.6998,2.7018,2.7057,2.7067,2.7099,2.7138,2.7163,2.7212,2.7224,2.727,2.7274,2.7258,2.7261,2.7281,2.7279,2.7341,2.7351,2.7308,2.7308,2.7309,0,2.6812,2.6838,2.6881,2.6903,2.6923,2.6957,2.698,2.7004,2.7028,2.7069,2.709,2.7129,2.7162,2.7224,2.7252,2.729,2.7295,2.7314,2.7301,2.7295,2.7296,2.7294,2.7297,2.7316,2.7316,2.7317,2.7317,0,2.685,2.6861,2.6893,2.6931,2.6958,2.6989,2.702,2.7037,2.7066,2.7092,2.7131,2.7157,2.7207,2.7247,2.7288,2.7309,2.7318,2.7321,2.7328,2.7323,2.7313,2.732,2.7265,2.7319,2.7319,2.7319,2.7319,2.7319,2.6873,2.6898,2.6932,2.6969,2.6995,2.7023,2.7049,2.7073,2.7106,2.7149,2.7161,2.7203,2.7237,2.7293,2.7316,2.7349,2.7347,2.7357,2.736,2.7362,2.7362,2.7308,2.7357,2.7356,2.7356,2.7356,2.7356,0,2.6913,2.6936,2.6969,2.7012,2.7041,2.7046,2.7081,2.7105,2.7141,2.7173,2.7205,2.7251,2.7289,2.7321,2.736,2.7381,2.7387,2.7391,2.739,2.7395,2.7362,2.7352,2.7386,2.7386,2.7386,2.7386,2.7386,2.7386,2.6936,2.6978,2.6993,2.7049,2.7072,2.7112,2.7131,2.7158,2.7184,2.7234,2.7266,2.7286,2.7318,2.7361,2.7397,2.7405,2.7419,2.7423,2.7432,2.7401,2.7397,2.7394,2.7385,2.7426,2.7426,2.7463,2.7463,2.7464]},{"header":{"parameterUnit":"m.s-1","parameterCategory":1,"la1":30.2991,"la2":30.254,"lo1":-89.0895,"lo2":-89.0444,"dy":0.0017,"dx":0.0017,"nx":28,"ny":28,"refTime":"2024-07-15T09:00:00:Z","depth":0,"parameterNumber":3,"parameterNumberName":"V-component_of_WINDS"},"data":[0,0,0,0,0,0,0,0,0,0,0,0,0,0,0,0,0,0,0,0,0,0,0,0,0,0,0,0,0,0,0,0,0,0,0,0,0,0,0,0,0,0,0,0,0,0,0,0,0,0,0,0,0,0,0,0,0,0,-0.0165,-0.0166,0,-0.0252,-0.0253,-0.0254,-0.0278,-0.0278,-0.0277,-0.0277,-0.0367,-0.037,-0.0373,0,0,0,0,0,0,0,0,0,0,0,0,0,-0.0023,-0.0025,-0.0165,-0.0166,-0.0167,-0.0251,-0.0253,-0.0254,-0.0278,-0.0278,-0.0277,-0.0277,-0.0366,-0.037,-0.0373,0,0,0,0,0,0,0,0,0,0,0,0,0,-0.0094,-0.0026,-0.0165,-0.0189,-0.0192,-0.0251,-0.0253,-0.0254,-0.0279,-0.0278,-0.0277,-0.0276,-0.0365,-0.0369,-0.0374,-0.0414,0,0,-0.0387,-0.0388,0,0,0,0,0,0,0,0,-0.009,-0.0099,-0.0185,-0.0188,-0.0191,-0.0253,-0.0236,-0.0308,-0.0279,-0.0246,-0.0277,-0.0276,-0.033,-0.0337,-0.0355,-0.0418,-0.0422,-0.0387,-0.039,-0.0391,-0.0393,0,0,0,0,0,0,0,-0.0085,-0.0096,-0.0199,-0.0186,-0.019,-0.0197,-0.0206,-0.0249,-0.0291,-0.0249,-0.0251,-0.0261,-0.0332,-0.0351,-0.0357,-0.0424,-0.0387,-0.0391,-0.0393,-0.0395,-0.0527,-0.0527,0,0,0,0,0,0,-0.0076,-0.0092,-0.0196,-0.0202,-0.0138,-0.02,-0.0211,-0.0234,-0.0291,-0.0298,-0.0261,-0.0261,-0.0344,-0.0352,-0.0361,-0.0413,-0.0391,-0.0395,-0.0398,-0.0526,-0.0527,-0.0528,0,0,0,0,0,0,-0.0073,-0.0085,-0.0193,-0.0147,-0.0162,-0.0203,-0.023,-0.0236,-0.0255,-0.03,-0.0308,-0.0273,-0.0344,-0.0355,-0.0401,-0.0417,-0.0397,-0.0401,-0.0525,-0.0526,-0.0527,-0.0518,0,0,0,0,0,0,-0.0068,-0.0084,-0.0099,-0.0147,-0.0164,-0.0231,-0.0231,-0.0239,-0.0263,-0.0264,-0.0313,-0.0321,-0.0344,-0.0394,-0.0405,-0.0422,-0.0404,-0.0523,-0.0525,-0.0527,-0.0517,-0.0519,-0.052,0,0,0,0,0,-0.0063,-0.0093,-0.01,-0.0112,-0.0184,-0.0232,-0.0242,-0.0268,-0.0264,-0.028,-0.0309,-0.0319,-0.0413,-0.0399,-0.0411,-0.043,-0.0522,-0.0525,-0.0527,-0.0516,-0.0518,-0.052,0,0,0,0,0,0,-0.0045,-0.0099,-0.0108,-0.0154,-0.0188,-0.0236,-0.0257,-0.0269,-0.0305,-0.0305,-0.0336,-0.0347,-0.0391,-0.0415,-0.0399,-0.0473,-0.0468,-0.0473,-0.0456,-0.0458,-0.046,-0.0453,-0.0408,0,0,0,0,0,-0.0046,-0.008,-0.0126,-0.0163,-0.0179,-0.0215,-0.0237,-0.0254,-0.0291,-0.0306,-0.0338,-0.0374,-0.0412,-0.0436,-0.0474,-0.052,-0.0532,-0.0539,-0.0541,-0.0542,-0.0546,-0.0573,-0.0577,-0.0535,-0.0535,-0.0535,0,0,-0.005,-0.0084,-0.0103,-0.016,-0.0188,-0.0224,-0.0227,-0.0264,-0.0291,-0.0312,-0.0358,-0.0383,-0.0425,-0.0472,-0.0494,-0.0493,-0.056,-0.0544,-0.0545,-0.0548,-0.0576,-0.058,-0.0584,-0.0536,-0.0536,-0.0536,0,0,-0.0074,-0.0102,-0.0136,-0.0165,-0.0208,-0.0232,-0.024,-0.0287,-0.0304,-0.0351,-0.0367,-0.04,-0.0464,-0.0494,-0.0517,-0.0554,-0.0565,-0.0565,-0.0574,-0.0601,-0.0604,-0.0607,-0.0621,-0.0626,-0.0569,-0.0569,-0.0569,0,-0.0072,-0.0126,-0.0152,-0.0189,-0.0214,-0.0234,-0.0269,-0.0296,-0.0349,-0.0366,-0.0364,-0.0446,-0.0475,-0.053,-0.0539,-0.0557,-0.0568,-0.056,-0.0601,-0.0605,-0.0608,-0.0622,-0.0627,-0.0568,-0.0568,-0.0568,-0.0568,0,-0.0123,-0.0159,-0.0182,-0.0233,-0.026,-0.0295,-0.0328,-0.0353,-0.0368,-0.0392,-0.044,-0.0476,-0.0522,-0.0536,-0.0551,-0.0594,-0.0592,-0.0595,-0.0591,-0.0611,-0.0625,-0.063,-0.0568,-0.0568,-0.0568,-0.0568,0,0,-0.0138,-0.0203,-0.0211,-0.0235,-0.0284,-0.0314,-0.0351,-0.0395,-0.0416,-0.0452,-0.0485,-0.0539,-0.0543,-0.0569,-0.0588,-0.0611,-0.0639,-0.0612,-0.0613,-0.0616,-0.069,-0.0687,-0.0693,-0.0646,-0.0648,-0.0648,-0.0686,0,-0.0169,-0.0235,-0.026,-0.0315,-0.035,-0.037,-0.0402,-0.0437,-0.0461,-0.0495,-0.0521,-0.0559,-0.0561,-0.0577,-0.0601,-0.063,-0.0654,-0.0628,-0.0678,-0.0679,-0.0667,-0.07,-0.0698,-0.0732,-0.0692,-0.0693,-0.0693,0,-0.0214,-0.0251,-0.0308,-0.0355,-0.037,-0.0399,-0.0442,-0.0474,-0.0514,-0.053,-0.056,-0.0577,-0.0617,-0.061,-0.0667,-0.0649,-0.0671,-0.0688,-0.069,-0.0697,-0.0688,-0.0708,-0.0743,-0.0748,-0.0702,-0.0701,-0.07,0,-0.0221,-0.0284,-0.0328,-0.0347,-0.0402,-0.0422,-0.0446,-0.0485,-0.051,-0.0548,-0.0565,-0.0607,-0.063,-0.0663,-0.0691,-0.0683,-0.0746,-0.0741,-0.0761,-0.0761,-0.0774,-0.0773,-0.0814,-0.0787,-0.0787,-0.0786,-0.0786,0,-0.0253,-0.0288,-0.0331,-0.0358,-0.0398,-0.0427,-0.0466,-0.0492,-0.0526,-0.0559,-0.0579,-0.0609,-0.0645,-0.068,-0.0702,-0.0747,-0.0757,-0.0771,-0.0777,-0.077,-0.0768,-0.0786,-0.0784,-0.0788,-0.0788,-0.0787,-0.0787,0,-0.0267,-0.0298,-0.0346,-0.0394,-0.0407,-0.0435,-0.0476,-0.0503,-0.0528,-0.0569,-0.0581,-0.062,-0.0662,-0.0694,-0.0749,-0.0764,-0.0812,-0.0817,-0.0798,-0.0801,-0.082,-0.0818,-0.0874,-0.0884,-0.0849,-0.0849,-0.085,0,-0.0287,-0.0314,-0.0365,-0.0388,-0.0412,-0.0448,-0.0474,-0.0504,-0.0531,-0.0579,-0.06,-0.0644,-0.0681,-0.0748,-0.0782,-0.0825,-0.0832,-0.0848,-0.0838,-0.0831,-0.0833,-0.0832,-0.0835,-0.085,-0.085,-0.085,-0.0851,0,-0.0318,-0.0332,-0.0368,-0.041,-0.044,-0.0475,-0.051,-0.0528,-0.0564,-0.0593,-0.0637,-0.0665,-0.0721,-0.0765,-0.0811,-0.0837,-0.085,-0.0853,-0.0861,-0.0854,-0.0842,-0.085,-0.0803,-0.0852,-0.0852,-0.0852,-0.0852,-0.0852,-0.0336,-0.0362,-0.0402,-0.0442,-0.0471,-0.0504,-0.0532,-0.056,-0.0597,-0.0645,-0.0661,-0.0706,-0.0746,-0.0809,-0.0835,-0.0872,-0.0872,-0.0882,-0.0885,-0.0887,-0.0887,-0.0836,-0.088,-0.088,-0.088,-0.088,-0.088,0,-0.0369,-0.0396,-0.0433,-0.0481,-0.0513,-0.0522,-0.0562,-0.0588,-0.0627,-0.0664,-0.0699,-0.075,-0.0793,-0.083,-0.0875,-0.0897,-0.0904,-0.0908,-0.0907,-0.0913,-0.0884,-0.0874,-0.0901,-0.0901,-0.0901,-0.0901,-0.0901,-0.0901,-0.039,-0.0435,-0.0453,-0.0513,-0.054,-0.0584,-0.0606,-0.0636,-0.0665,-0.0721,-0.0756,-0.078,-0.0817,-0.0865,-0.0905,-0.0915,-0.0931,-0.0933,-0.0944,-0.0917,-0.0914,-0.0912,-0.0903,-0.0936,-0.0936,-0.097,-0.097,-0.0971]}]]